STARLINK-4316, 53471

Orbit data source: Space-Track

STARLINK-4316, 53471 is a payload satellite owned by SpaceX/Seattle (US) in SSO that was launched on Fri, 12 Aug 2022 UTC via an FALCON 9 launch vehicle from the Air Force Western Test Range (AFWTR). Payload-class satellites include a variety of spacecraft equipped with specific instruments for various scientific and technological missions. These include communications satellites like Starlink; space stations such as the ISS; scientific satellites like the Hubble; Earth observation satellites from companies like Planet Labs, Umbra, and HawkEye 360; GPS; miniature CubeSats for education and research; and military/defense satellites.

Loading next visibility...
Identifier
53471, 2022-099G
Orbit
SSO
Country
Flag of USUS
Related business
Manufacturer
SpaceX/Seattle
Mission
Operational Commercial Communications
Bus & Motor
STARLINK, Unknown motor
Mass
300 kg wet, ~275 kg dry
Launch date (UTC)
2022-08-12 (3 years ago)
Launch vehicle
FALCON 9
Launch site
Air Force Western Test Range (AFWTR)
Object type
Payload
Rocket body
Debris
Shape & HBR
Box + 1 Pan, 10.1 m
Radar Cross Section
13.562 m², Large (>1 m²)

Expand to show TLE details & history
Last TLE update: 6 hours ago

TLE from 6 hours ago
0 STARLINK-4316
1 53471U 22099G   25293.59608513 -.00000908  00000-0 -60020-4 0  9991
2 53471  97.6033  53.1032 0001897  89.0021 271.1422 15.04842814174962
Epoch: 2025-10-20T14:18Z
TLE epoch observation values (Epoch: 2025-10-20T14:18:21.755Z)
Latitude
-0.00007°
Longitude
169.21643°
Altitude
555.026 km
Speed
7.584 km/s
True Right ascension
03h 32m 24s
True Declination
0° 00' 00"
Sunlit
Object was in full shadow at epoch
Visualization orbit readout
Latitude
Unknown
Longitude
Unknown
Altitude
Unknown
Speed
Unknown
Apparent Right ascension
Unknown
Apparent Declination
Unknown
Sunlit
N/A
Visualization observer readout
Local Sidereal Time
15:05:36
Azimuth
Unknown
Elevation
Unknown
Doppler factor
Unknown
Orbital elements
Apogee altitude
550.297 km
Perigee altitude
547.669 km
Semi-major axis
6,927.12 km
Eccentricity
0.00019
Inclination
97.6033°
RAAN
53.1032°
Arg. of periapsis
89.0021°
True anomaly
271.12047°
Mean anomaly
271.1422°
Eccentric anomaly
271.13133°
Mean motion
3.76456 °/min
Orbital period
95.63 mins
BSTAR
-0.00006002
Loading maneuver chart data...
Computing Atmospheric mass density...
Loading historical data...
Loading historical data...
Loading historical data...
Loading historical data...
Loading historical data...
Loading historical data...
Loading historical data...

Documentation

Showing up to 5 results
|